Powrót do katalogu

DELTA 1 DEB

AktywnySSO
NORAD 7141·DEBRIS·🇺🇸 United States

Wystrzelony Nov 6, 1973 z Vandenberg Space Force Base

Loading…

Następne Przeloty (najbliższe 24 godziny)

TLE

ŚwieżeSource: Space-Track

Epoka: Sep 14, 2026, 09:08 UTC

1 07141U 73086DF  26257.38093906  .00000125  00000-0  12592-2 0  9996
2 07141 102.0763 308.3815 0024682 149.2556 277.3151 12.40966990386117

Śledź DELTA 1 DEB w czasie rzeczywistym z AllMySat

Download on the App Store